Regional Weather Roundup
Issued by NWS

Home | Current Version | Previous Version | Text Only | Print | Product List | Glossary On
Versions: 1 2 3 4 5 6 7 8 9 10 11 12 13 14 15 16 17 18 19 20 21 22 23 24 25 26 27 28 29 30 31 32 33 34 35 36 37 38 39 40 41 42 43 44 45 46 47 48 49 50
000
ASUS43 KBIS 242010
RWRND

NORTH DAKOTA REGIONAL WEATHER ROUNDUP
NATIONAL WEATHER SERVICE BISMARCK ND
300 PM CDT FRI OCT 24 2014

NOTE: "FAIR" INDICATES FEW OR NO CLOUDS BELOW 12,000 FEET WITH NO
SIGNIFICANT WEATHER AND/OR OBSTRUCTIONS TO VISIBILITY.


NDZ001>003-009>011-017-242100-
NORTHWEST NORTH DAKOTA

CITY           SKY/WX    TMP DP  RH WIND       PRES   REMARKS
WILLISTON      MOSUNNY   62  30  29 W24G32    29.92S
MINOT          SUNNY     65  27  23 W30G38    29.84R
MINOT AFB      SUNNY     65  31  28 W28G36    29.82R
$$

NDZ018>021-031>035-040>046-242100-
SOUTHWEST NORTH DAKOTA

CITY           SKY/WX    TMP DP  RH WIND       PRES   REMARKS
BISMARCK       MOSUNNY   73  36  25 W18G24    29.89F
DICKINSON      PTSUNNY   61  35  37 W17G26    29.95S
GARRISON         N/A     66  30  26 NW25G36   29.88R
HETTINGER ARPT CLOUDY    64  33  31 W15       30.00R
$$

NDZ004>008-012>016-024-026-027-054-242100-
NORTHEAST NORTH DAKOTA

CITY           SKY/WX    TMP DP  RH WIND       PRES   REMARKS
GRAND FORKS    MOSUNNY   73  41  31 W17G25    29.72F
GRND FRKS AFB  SUNNY     72  40  30 W22G28    29.73F
DEVILS LAKE    SUNNY     66  37  34 W23G30    29.76F
$$

NDZ022-023-025-028>030-036>039-047>053-242100-
SOUTHEAST NORTH DAKOTA

CITY           SKY/WX    TMP DP  RH WIND       PRES   REMARKS
FARGO          SUNNY     77  42  28 W18       29.76F
JAMESTOWN      SUNNY     71  40  32 W15       29.82S
$$




USA.gov is the U.S. government's official web portal to all federal, state and local government web resources and services.